Weather History for KLBF - February, 2013

Change the Weather History Date:

Wednesday, February 20, 2013

  Actual Average Record
Temperature  
Mean Temperature 17 °F 30 °F  
Max Temperature 23 °F 44 °F 74 °F (1930)
Min Temperature 11 °F 16 °F -19 °F (1959)
Degree Days  
Heating Degree Days 48 35  
Month to date heating degree days 657 742  
Since 1 July heating degree days 4612 4762  
Cooling Degree Days 0 0  
Month to date cooling degree days 0 0  
Year to date cooling degree days 0 0  
Moisture  
Dew Point 12 °F    
Average Humidity 70    
Maximum Humidity 92    
Minimum Humidity 47    
Precipitation  
Precipitation 0.20 in 0.03 in 0.34 in (1962)
Month to date precipitation 0.67 0.31  
Year to date precipitation 0.91 0.65  
Snow  
Snow 2.00 in 0.20 in 3.40 in (1962)
Month to date snowfall 6.4 3.8  
Since 1 July snowfall 15.3 19.4  
Snow Depth 0.00 in    
Sea Level Pressure  
Sea Level Pressure 30.04 in    
Wind  
Wind Speed 16 mph (ESE)    
Max Wind Speed 23 mph    
Max Gust Speed 29 mph    
Visibility 5 miles    
Events Fog , Snow    
T = Trace of Precipitation, MM = Missing Value Source: NWS Daily Summary

Daily Weather History Graph

Daily Weather History Graph

Search for Another Location

Airport or City:

Trip Planner

Search our weather history database for the weather conditions in past years. The results will help you decide how hot, cold, wet, or windy it might be!

Date:

Astronomy

Feb. 20, 2013 Rise Set
Actual Time 7:29 AM CST 6:23 PM CST
Civil Twilight 7:01 AM CST 6:51 PM CST
Nautical Twilight 6:29 AM CST 7:23 PM CST
Astronomical Twilight 5:58 AM CST 7:55 PM CST
Moon 1:44 PM CST (2/20) 3:53 AM CST (2/20)
Length of Visible Light 11h 49m
Length of Day
10h 53m
Waxing Gibbous, 76% of the Moon is Illuminated
Feb 20
Waxing Gibbous
Feb 25
Full
Mar 4
Last Quarter
Mar 11
New
Mar 19
First Quarter

Hourly Weather History & Observations

Time (CST) Temp. Windchill Dew Point Humidity Pressure Visibility Wind Dir Wind Speed Gust Speed Precip Events Conditions
12:53 AM 16.0 °F -0.4 °F -0.0 °F 49% 30.22 in 10.0 mi ESE 18.4 mph - N/A   Clear
1:53 AM 15.1 °F -2.0 °F -0.0 °F 51% 30.19 in 10.0 mi ESE 19.6 mph - N/A   Clear
2:53 AM 14.0 °F -3.9 °F -0.0 °F 54% 30.18 in 10.0 mi ESE 20.7 mph 27.6 mph N/A   Clear
3:53 AM 12.9 °F -3.4 °F -0.0 °F 56% 30.17 in 10.0 mi ESE 16.1 mph - N/A   Clear
4:53 AM 12.0 °F -5.6 °F -0.0 °F 59% 30.16 in 10.0 mi ESE 18.4 mph - N/A   Clear
5:53 AM 10.4 °F -6.0 °F 1.4 °F 67% 30.05 in 10.0 mi ESE 15.0 mph - N/A   Clear
6:53 AM 10.4 °F -8.2 °F 1.4 °F 67% 30.04 in 10.0 mi ESE 19.6 mph 23.0 mph N/A   Partly Cloudy
7:38 AM 12.2 °F -3.1 °F 1.4 °F 62% 30.05 in 10.0 mi ESE 13.8 mph - N/A   Overcast
7:53 AM 12.9 °F -3.4 °F 1.9 °F 62% 30.17 in 10.0 mi ESE 16.1 mph - N/A   Overcast
8:53 AM 14.0 °F -2.0 °F 1.4 °F 57% 30.05 in 10.0 mi ESE 16.1 mph 23.0 mph N/A   Overcast
9:53 AM 17.1 °F 3.0 °F 1.9 °F 52% 30.17 in 10.0 mi ESE 13.8 mph 21.9 mph N/A   Overcast
10:24 AM 17.6 °F 2.7 °F 3.2 °F 53% 30.05 in 10.0 mi ESE 16.1 mph - N/A   Overcast
10:53 AM 17.6 °F 4.3 °F 6.8 °F 63% 30.05 in 5.0 mi ESE 12.7 mph - N/A Snow Light Snow
11:53 AM 18.0 °F 3.6 °F 10.9 °F 74% 30.16 in 7.0 mi ESE 15.0 mph - 0.00 in   Overcast
12:49 PM 19.4 °F 5.5 °F 12.2 °F 74% 30.02 in 6.0 mi ESE 15.0 mph - 0.00 in   Haze
12:53 PM 19.9 °F 4.8 °F 12.9 °F 74% 30.14 in 6.0 mi ESE 18.4 mph - 0.00 in   Haze
1:30 PM 19.4 °F 5.5 °F 14.0 °F 80% 29.99 in 10.0 mi ESE 15.0 mph - N/A   Overcast
1:53 PM 19.9 °F 5.7 °F 14.0 °F 78% 30.10 in 8.0 mi ESE 16.1 mph - N/A   Overcast
2:53 PM 21.0 °F 5.7 °F 16.0 °F 81% 30.07 in 10.0 mi ESE 19.6 mph - 0.00 in   Overcast
3:53 PM 21.9 °F 8.7 °F 17.1 °F 82% 30.06 in 10.0 mi ESE 15.0 mph 24.2 mph N/A   Overcast
4:53 PM 21.9 °F 7.8 °F 18.0 °F 85% 30.05 in 1.5 mi ESE 17.3 mph - 0.00 in Snow Light Snow
4:59 PM 21.2 °F 7.3 °F 17.6 °F 86% 29.93 in 1.2 mi ESE 16.1 mph - 0.00 in Snow Light Snow
5:22 PM 21.2 °F 8.9 °F 17.6 °F 86% 29.92 in 2.0 mi ESE 12.7 mph - 0.01 in Snow Light Snow
5:35 PM 21.2 °F 7.8 °F 17.6 °F 86% 29.92 in 1.2 mi ESE 15.0 mph - 0.01 in Snow Light Snow
5:50 PM 21.2 °F 6.8 °F 17.6 °F 86% 29.92 in 1.8 mi ESE 17.3 mph - 0.01 in Snow Light Snow
5:51 PM 21.2 °F 6.8 °F 17.6 °F 86% 29.92 in 2.0 mi ESE 17.3 mph - 0.01 in Snow Light Snow
5:53 PM 21.9 °F 8.7 °F 18.0 °F 85% 30.05 in 2.0 mi ESE 15.0 mph - 0.01 in Snow Light Snow
6:04 PM 21.2 °F 7.8 °F 17.6 °F 86% 29.92 in 1.8 mi ESE 15.0 mph - 0.00 in Snow Light Snow
6:20 PM 21.2 °F 8.9 °F 17.6 °F 86% 29.93 in 3.0 mi ESE 12.7 mph - 0.01 in Snow Light Snow
6:29 PM 21.2 °F 8.3 °F 17.6 °F 86% 29.93 in 4.0 mi ESE 13.8 mph - 0.01 in Snow Light Snow
6:53 PM 21.9 °F 9.8 °F 18.0 °F 85% 30.06 in 5.0 mi ESE 12.7 mph - 0.01 in Snow Light Snow
7:11 PM 21.2 °F 6.0 °F 17.6 °F 86% 29.94 in 2.5 mi ESE 19.6 mph - 0.01 in Snow Light Snow
7:16 PM 21.2 °F 7.3 °F 17.6 °F 86% 29.94 in 3.0 mi ESE 16.1 mph - 0.01 in Snow Light Snow
7:44 PM 21.2 °F 8.3 °F 17.6 °F 86% 29.95 in 1.8 mi ESE 13.8 mph 20.7 mph 0.01 in Snow Light Snow
7:53 PM 21.0 °F 7.6 °F 18.0 °F 88% 30.08 in 1.2 mi ESE 15.0 mph - 0.02 in Snow Light Snow
8:11 PM 19.4 °F 5.0 °F 17.6 °F 93% 29.95 in 2.0 mi ESE 16.1 mph - 0.01 in Snow Light Snow
8:20 PM 19.4 °F 4.1 °F 17.6 °F 93% 29.96 in 3.0 mi ESE 18.4 mph - 0.01 in Snow Light Snow
8:38 PM 19.4 °F 5.0 °F 15.8 °F 86% 29.96 in 2.5 mi ESE 16.1 mph - 0.01 in Snow Light Snow
8:47 PM 19.4 °F 5.0 °F 15.8 °F 86% 29.96 in 3.0 mi ESE 16.1 mph - 0.02 in Snow Light Snow
8:53 PM 19.4 °F 7.2 °F 15.8 °F 86% 29.96 in 2.5 mi East 11.5 mph - N/A Snow Light Snow
9:17 PM 19.4 °F 4.5 °F 15.8 °F 86% 29.96 in 1.2 mi ESE 17.3 mph 25.3 mph N/A Snow Light Snow
9:41 PM 17.6 °F 1.7 °F 15.8 °F 93% 29.96 in 0.8 mi ESE 18.4 mph - 0.03 in Snow Light Snow
9:53 PM 18.0 °F 2.6 °F 15.1 °F 88% 30.07 in 1.0 mi ESE 17.3 mph - 0.04 in Snow Light Snow
10:00 PM 17.6 °F 1.7 °F 14.0 °F 86% 29.95 in 2.0 mi ESE 18.4 mph - 0.00 in Snow Light Snow
10:05 PM 17.6 °F 1.3 °F 14.0 °F 86% 29.95 in 4.0 mi ESE 19.6 mph - 0.00 in Snow Light Snow
10:32 PM 17.6 °F 2.7 °F 14.0 °F 86% 29.95 in 1.8 mi ESE 16.1 mph - 0.00 in Snow Light Snow
10:39 PM 17.6 °F 2.7 °F 14.0 °F 86% 29.96 in 1.2 mi ESE 16.1 mph - N/A Snow Light Snow
10:53 PM 18.0 °F 3.1 °F 14.0 °F 84% 30.08 in 1.0 mi ESE 16.1 mph - 0.01 in Snow Light Snow
10:57 PM 17.6 °F 1.7 °F 14.0 °F 86% 29.95 in 0.8 mi ESE 18.4 mph - 0.01 in Snow Light Snow
11:21 PM 17.6 °F 3.2 °F 14.0 °F 86% 29.95 in 0.8 mi ESE 15.0 mph - 0.03 in Snow Light Snow
11:53 PM 17.1 °F 1.0 °F 14.0 °F 88% 30.07 in 0.5 mi ESE 18.4 mph - 0.08 in Fog , Snow Snow